Regional Weather Roundup
Issued by NWS Jackson, KY

Home | Current Version | Previous Version | Text Only | Print | Product List | Glossary On
Versions: 1 2 3 4 5 6 7 8 9 10 11 12 13 14 15 16 17 18 19 20 21 22 23 24 25 26 27 28 29 30 31 32 33 34 35 36 37 38 39 40 41 42 43 44 45 46 47 48 49 50
000
ASUS43 KJKL 250210
RWRJKL

EAST KENTUCKY HOURLY WEATHER ROUNDUP
NATIONAL WEATHER SERVICE JACKSON KY
1000 PM EDT SAT JUN 24 2017

NOTE: "FAIR" INDICATES FEW OR NO CLOUDS BELOW 12,000 FEET WITH
NO SIGNIFICANT WEATHER AND/OR OBSTRUCTIONS TO VISIBILITY.

* THESE REPORTS ARE NOT UNDER NWS QUALITY CONTROL AND MAY NOT
  REPORT WEATHER SUCH AS PRECIPITATION AND FOG.

KYZ079-080-083-085-087-088-110-112-115-119-120-250300
...EASTERN KENTUCKY...

CITY           SKY/WX    TMP DP  RH WIND       PRES   REMARKS
JACKSON        CLEAR     71  57  61 NW5       30.09R
LONDON         PTCLDY    70  57  63 W5        30.10R
SOMERSET*      CLEAR     70  55  60 NW3       30.12R
MONTICELLO*    PTCLDY    67  62  84 NW5       30.14R
WILLIAMSBURG*  PTCLDY    68  59  73 CALM      30.11R
MIDDLESBORO*   PTCLDY    69  60  73 CALM      30.11R
HARLAN APT*    MOCLDY    68  59  73 CALM      30.11R
PIKE CO APT*     N/A     70  58  66 NW5       30.09R
BIG SANDY APT* CLEAR     71  58  62 CALM      30.08R
MOREHEAD APT*  CLEAR     70  57  64 CALM      30.09R
$$

KYZ035-036-041-042-044-050-067-078-099-250300
...CENTRAL KENTUCKY...

CITY           SKY/WX    TMP DP  RH WIND       PRES   REMARKS
MT STERLING*   CLEAR     68  59  73 NW3       30.10R
FLEMING/MASON* PTCLDY    68  58  72 W5        30.09R
DANVILLE*      PTCLDY    68  55  64 W5        30.12R
LEXINGTON      CLEAR     69  54  58 NW6       30.10R
FRANKFORT      PTCLDY    70  55  59 W6        30.09R
LOUISVILLE     MOCLDY    70  56  61 W9        30.10R
LEBANON*         N/A    N/A N/A N/A MISG        N/A
GLASGOW*       PTCLDY    68  60  74 NW3       30.13R
BOWLING GREEN  PTCLDY    73  57  57 NW3       30.12R
$$

KYZ091>093-OHZ055-061-077-WVZ005-015-034-035-042-250300
...SOUTHERN OHIO/WEST VIRGINIA...

CITY           SKY/WX    TMP DP  RH WIND       PRES   REMARKS
COVINGTON      MOCLDY    68  58  70 W6        30.07R
COLUMBUS       PTCLDY    71  55  56 W12       30.02R
DAYTON         PTCLDY    67  52  58 W9        30.07R
WILMINGTON     CLOUDY    70  57  63 W7        30.06R
HUNTINGTON     CLEAR     70  59  68 SW5       30.05R
CHARLESTON     PTCLDY    71  59  65 W3        30.04R
PINEVILLE*     MOCLDY    65  63  91 MISG      30.13R
BECKLEY        CLOUDY    65  57  75 CALM      30.11R
BLUEFIELD      CLEAR     65  55  70 W5        30.14R
LOGAN CO APT*    N/A     72  59  64 CALM      30.08R
$$

VAZ002-007-008-TNZ017-027-036-066-071-250300
...SOUTHWEST VIRGINIA/EAST TENNESSEE...

CITY           SKY/WX    TMP DP  RH WIND       PRES   REMARKS
WISE*          MOCLDY    68  55  64 CALM      30.15R
JONESVILLE*      N/A     70  59  68 CALM      30.11R
ABINGDON*      CLEAR     71  58  63 CALM      30.10R
BRISTOL        PTCLDY    73  59  61 NW5       30.08R
MORRISTOWN*    PTCLDY    70  64  83 VRB3      30.08R
SEVIERVILLE*   CLOUDY    72  63  73 CALM      30.07R
KNOXVILLE      MOCLDY    75  61  61 W6        30.07R
LAFOLLETTE*      N/A     73  59  60 VRB5      30.14R
OAK RIDGE      PTCLDY    74  58  57 NW3       30.10R
CROSSVILLE     PTCLDY    68  58  70 NW5       30.15R
NASHVILLE      MOCLDY    77  58  51 N10       30.12R
$$

...KEY TO REMARKS...
VSB - VISIBILITY IN MILES
WCI - WIND CHILL INDEX
HX  - HEAT INDEX

$$



USA.gov is the U.S. government's official web portal to all federal, state and local government web resources and services.